Location: Asheville, NC
(35.6000°N, 82.5500°W)
Time: 17:19:19
(UTC-05:00)

CUBEBUG 2 - Pass Details

Date: 09 January 2018
Orbit: 587 x 699 km, 97.6° (Epoch: 21 January)

Event Time Altitude Azimuth Distance (km) Brightness Sun altitude
Rises 19:18:01 0° 176° (S) 2,806 ? -20.5°
Reaches altitude 10° 19:20:10 10° 181° (S) 1,918 ? -20.9°
Maximum altitude 19:24:16 57° 260° (W) 709 ? -21.8°
Drops below altitude 10° 19:28:29 10° 340° (NNW) 1,980 ? -22.6°
Sets 19:30:45 0° 344° (NNW) 2,907 ? -23.0°
